Regional Weather Roundup
Issued by NWS

Home | Current Version | Previous Version | Graphics & Text | Print | Product List | Glossary On
Versions: 1 2 3 4 5 6 7 8 9 10 11 12 13 14 15 16 17 18 19 20 21 22 23 24 25 26 27 28 29 30 31 32 33 34 35 36 37 38 39 40 41 42 43 44 45 46 47 48 49 50
000
ASUS43 KDMX 161807
RWRIA

WEATHER ROUNDUP FOR IOWA
NATIONAL WEATHER SERVICE DES MOINES IA
100 PM CDT TUE SEP 16 2014

NOTE: "FAIR" INDICATES FEW OR NO CLOUDS BELOW 12,000 FEET WITH NO
SIGNIFICANT WEATHER AND/OR OBSTRUCTIONS TO VISIBILITY.

* - THESE STATIONS ARE NOT NWS STATIONS...THUS NOT UNDER NWS
QUALITY CONTROL.  THEY ALSO DO NOT REPORT WEATHER SUCH
AS PRECIPITATION OR FOG.

IAZ001>003-012>014-020>022-031>034-043>046-161900-
   NORTHWEST IOWA

CITY           SKY/WX    TMP DP  RH WIND       PRES   REMARKS
CARROLL *      SUNNY     63  45  51 SW10      30.17F
CHEROKEE *     SUNNY     63  46  55 S12G17    30.16F
DENISON *      SUNNY     63  45  51 S9G16     30.15F
LE MARS *      SUNNY     64  46  52 S15       30.14F
ORANGE CITY *  SUNNY     64  45  48 SW14G20   30.13F
SHELDON *      SUNNY     63  46  55 S13G21    30.12F
SIOUX CITY     SUNNY     65  47  52 S10       30.14F
6HR MIN TEMP:  38; 6HR MAX TEMP:  65;

SPENCER        SUNNY     63  44  50 S13       30.15F
6HR MIN TEMP:  35; 6HR MAX TEMP:  63;

STORM LAKE *   SUNNY     63  52  67 S10G17    30.16F
$$

IAZ055>058-069>071-079>083-090>094-161900-
   SOUTHWEST IOWA

CITY           SKY/WX    TMP DP  RH WIND       PRES   REMARKS
ATLANTIC *     SUNNY     63  46  55 S9        30.18F
AUDUBON *      SUNNY     63  43  48 S6        30.19F
CLARINDA *     SUNNY     64  46  52 SW3G12    30.20F
COUNCIL BLFS * SUNNY     63  50  63 S13       30.16F
CRESTON *      MOSUNNY   61  46  59 S9        30.20F
HARLAN  *      SUNNY     63  46  55 S9G16     30.21F
LAMONI         SUNNY     62  46  55 CALM      30.20F
6HR MIN TEMP:  45; 6HR MAX TEMP:  63;

SHENANDOAH *   SUNNY     64  48  55 VRB6G12   30.19F
$$

IAZ047>049-059>061-072>074-084-161900-
   CENTRAL IOWA

CITY           SKY/WX    TMP DP  RH WIND       PRES   REMARKS
AMES           SUNNY     62  43  49 SW6       30.18F
6HR MIN TEMP:  36; 6HR MAX TEMP:  63;

ANKENY *       SUNNY     63  45  51 VRB5G13   30.19F
CHARITON *     SUNNY     63  45  51 E5        30.19F
DES MOINES     MOSUNNY   65  45  48 S7        30.19F
6HR MIN TEMP:  44; 6HR MAX TEMP:  65;

GRINNELL*      SUNNY     61  43  51 CALM      30.20F
KNOXVILLE *    SUNNY     63  45  51 S10       30.18F
MARSHALLTOWN   SUNNY     63  43  48 S8        30.18F
6HR MIN TEMP:  37; 6HR MAX TEMP:  63;

PELLA *        SUNNY     65  45  49 S3        30.21F
PERRY *          N/A     64  44  48 S5        30.19F
$$

IAZ004>006-015-016-023>025-035-036-161900-
   NORTH CENTRAL IOWA

CITY           SKY/WX    TMP DP  RH WIND       PRES   REMARKS
ALGONA *       SUNNY     63  45  51 S8G15     30.16F
CLARION *        N/A     63  43  48 SW8       30.17F
ESTHERVILLE    SUNNY     62  44  51 S12G21    30.14F
6HR MIN TEMP:  36; 6HR MAX TEMP:  62;

FORT DODGE *   SUNNY     63  45  51 S8        30.18F
MASON CITY     SUNNY     63  42  46 S8        30.18F
6HR MIN TEMP:  36; 6HR MAX TEMP:  63;

FOREST CITY *  SUNNY     63  43  48 W7        30.16F
IOWA FALLS *     N/A     63  43  48 SW9       30.19F
$$

IAZ007>011-017>019-026>030-037>042-050>054-066-161900-
   NORTHEAST IOWA

CITY           SKY/WX    TMP DP  RH WIND       PRES   REMARKS
CEDAR RAPIDS   SUNNY     62  46  55 SW10      30.18F
6HR MIN TEMP:  40; 6HR MAX TEMP:  63;

CHARLES CITY * SUNNY     63  41  45 W7G14     30.18F
CLINTON *      SUNNY     63  45  51 NW3       30.22F
DECORAH *      SUNNY     61  43  51 VRB7      30.16F
DUBUQUE        SUNNY     60  42  51 SW9       30.19F
6HR MIN TEMP:  36; 6HR MAX TEMP:  60;

MONTICELLO *   SUNNY     63  43  48 CALM      30.18F
OELWEIN *      SUNNY     61  41  48 VRB7G14   30.19F
WATERLOO       SUNNY     63  41  44 MISG      30.17F
6HR MIN TEMP:  34; 6HR MAX TEMP:  63;

$$

IAZ064-065-067-068-078-161900-
   EAST CENTRAL IOWA

CITY           SKY/WX    TMP DP  RH WIND       PRES   REMARKS
DAVENPORT      SUNNY     63  40  42 VRB3      30.20F
6HR MIN TEMP:  38; 6HR MAX TEMP:  63;

IOWA CITY      SUNNY     62  46  55 VRB5      30.20F
6HR MIN TEMP:  41; 6HR MAX TEMP:  63;

MT. PLEASANT * SUNNY     64  43  46 CALM      30.20F
MUSCATINE *    SUNNY     63  41  45 VRB3      30.20F
QUAD CITIES    SUNNY     65  42  43 NW8       30.20F
6HR MIN TEMP:  40; 6HR MAX TEMP:  65;

$$

IAZ062-063-075>077-085>089-095>099-161900-
   SOUTHEAST IOWA

CITY           SKY/WX    TMP DP  RH WIND       PRES   REMARKS
BURLINGTON     SUNNY     65  46  50 NE5       30.19F
6HR MIN TEMP:  41; 6HR MAX TEMP:  65;

FAIRFIELD *    SUNNY     63  45  51 VRB6      30.20F
FORT MADISON * SUNNY     64  43  45 E6        30.21F
KEOKUK *       SUNNY     63  46  55 CALM      30.20F
OSKALOOSA *      N/A     63  45  53 S3        30.20F
CENTERVILLE *  SUNNY     63  46  55 SW3       30.21F
OTTUMWA        SUNNY     63  44  50 VRB3      30.20F
6HR MIN TEMP:  39; 6HR MAX TEMP:  63;

WASHINGTON *   SUNNY     64  45  48 VRB5      30.20F
$$

ABBREVIATIONS USED IN REMARKS
   TC - TEMPERATURES IN CELSIUS
  WCI - WIND CHILL INDEX
   HX - HEAT INDEX
  VSB - VISIBILITY
$$




USA.gov is the U.S. government's official web portal to all federal, state and local government web resources and services.